,,PA_Meas_PMT16A,,PR_Meas_QMR101_102,,RH_Meas_QMH101,,SR_Meas_QMS101,,TA_Meas_QMH101,,GenWind,,GenWind,
time,status,PA,status,PR,status,RH,status,SR,status,TA,status,DirAvg,status,SpdAvg,
2014-05-12, 07:00:04,VALID,918.385,VALID,0,VALID,97.2824,VALID,45.4476,VALID,18.0874,VALID,106,VALID,0.738281,
2014-05-12, 07:01:04,VALID,918.371,VALID,0,VALID,97.2672,VALID,47.489,VALID,18.1264,VALID,117,VALID,0.841797,
2014-05-12, 07:02:04,VALID,918.38,VALID,0,VALID,97.2824,VALID,49.6378,VALID,18.164,VALID,126,VALID,0.572656,
2014-05-12, 07:03:04,VALID,918.426,VALID,0,VALID,97.2824,VALID,51.8941,VALID,18.1626,VALID,126,VALID,0.635156,
2014-05-12, 07:04:04,VALID,918.426,VALID,0,VALID,97.2824,VALID,54.1503,VALID,18.1821,VALID,147,VALID,0.770312,
2014-05-12, 07:05:04,VALID,918.444,VALID,0,VALID,97.2443,VALID,56.514,VALID,18.2211,VALID,164,VALID,1.03008,
2014-05-12, 07:06:04,VALID,918.478,VALID,0,VALID,97.2748,VALID,59.2001,VALID,18.2406,VALID,164,VALID,1.11328,
2014-05-12, 07:07:04,VALID,918.524,VALID,0,VALID,97.2595,VALID,61.7787,VALID,18.2601,VALID,147,VALID,0.946094,
2014-05-12, 07:08:04,VALID,918.57,VALID,0,VALID,97.2595,VALID,64.5721,VALID,18.2796,VALID,148,VALID,1.02422,
2014-05-12, 07:09:04,VALID,918.597,VALID,0,VALID,97.2519,VALID,67.473,VALID,18.299,VALID,150,VALID,1.03125,
2014-05-12, 07:10:04,VALID,918.596,VALID,0,VALID,97.2595,VALID,70.4814,VALID,18.3199,VALID,150,VALID,0.954297,
2014-05-12, 07:11:04,VALID,918.608,VALID,0,VALID,97.2519,VALID,73.8121,VALID,18.3185,VALID,151,VALID,1.01836,
2014-05-12, 07:12:04,VALID,918.612,VALID,0,VALID,97.2519,VALID,77.5725,VALID,18.3589,VALID,137,VALID,0.976953,
2014-05-12, 07:13:04,VALID,918.636,VALID,0,VALID,97.2519,VALID,82.1925,VALID,18.377,VALID,134,VALID,0.639453,
2014-05-12, 07:14:04,VALID,918.641,VALID,0,VALID,97.2443,VALID,87.4571,VALID,18.377,VALID,142,VALID,1.01758,
2014-05-12, 07:15:04,VALID,918.676,VALID,0,VALID,97.2443,VALID,92.1845,VALID,18.416,VALID,130,VALID,1.06836,
2014-05-12, 07:16:04,VALID,918.666,VALID,0,VALID,97.2367,VALID,96.3747,VALID,18.4745,VALID,124,VALID,0.718359,
2014-05-12, 07:17:04,VALID,918.722,VALID,0,VALID,97.2214,VALID,100.565,VALID,18.5149,VALID,118,VALID,0.672656,
2014-05-12, 07:18:04,VALID,918.728,VALID,0,VALID,97.2214,VALID,105.615,VALID,18.572,VALID,118,VALID,0.591406,
2014-05-12, 07:19:04,VALID,918.743,VALID,0,VALID,97.1986,VALID,111.524,VALID,18.6513,VALID,119,VALID,0.598047,
2014-05-12, 07:20:04,VALID,918.787,VALID,0,VALID,97.1909,VALID,117.648,VALID,18.6499,VALID,141,VALID,0.707422,
2014-05-12, 07:21:04,VALID,918.789,VALID,0,VALID,97.1681,VALID,124.632,VALID,18.7474,VALID,141,VALID,0.716406,
2014-05-12, 07:22:04,VALID,918.818,VALID,0,VALID,97.1757,VALID,131.078,VALID,18.7864,VALID,141,VALID,0.618359,
2014-05-12, 07:23:04,VALID,918.843,VALID,0,VALID,97.1604,VALID,136.343,VALID,18.8644,VALID,141,VALID,0.438281,
2014-05-12, 07:24:04,VALID,918.899,VALID,0,VALID,97.1604,VALID,140.318,VALID,18.9424,VALID,143,VALID,0.725781,
2014-05-12, 07:25:04,VALID,918.909,VALID,0,VALID,97.1452,VALID,144.186,VALID,19.0203,VALID,149,VALID,0.547656,
2014-05-12, 07:26:04,VALID,918.952,VALID,0,VALID,97.1147,VALID,148.591,VALID,19.0593,VALID,160,VALID,0.793359,
2014-05-12, 07:27:04,VALID,918.98,VALID,0,VALID,97.1604,VALID,152.674,VALID,19.0008,VALID,153,VALID,1.07539,
2014-05-12, 07:28:04,VALID,919.033,VALID,0,VALID,97.1452,VALID,155.575,VALID,19.0593,VALID,137,VALID,0.798047,
2014-05-12, 07:29:04,VALID,919.029,VALID,0,VALID,97.1452,VALID,158.583,VALID,19.0398,VALID,135,VALID,0.842188,
2014-05-12, 07:30:04,VALID,919.115,VALID,0,VALID,97.1299,VALID,160.517,VALID,19.0608,VALID,135,VALID,0.633984,
2014-05-12, 07:31:04,VALID,919.145,VALID,0,VALID,97.1071,VALID,160.625,VALID,19.1193,VALID,145,VALID,0.65,
2014-05-12, 07:32:04,VALID,919.204,VALID,0,VALID,97.0994,VALID,157.616,VALID,19.1373,VALID,145,VALID,0.890625,
2014-05-12, 07:33:04,VALID,919.232,VALID,0,VALID,97.0994,VALID,156.757,VALID,19.1583,VALID,146,VALID,0.740625,
2014-05-12, 07:34:04,VALID,919.243,VALID,0,VALID,97.1147,VALID,157.079,VALID,19.1388,VALID,139,VALID,0.805469,
2014-05-12, 07:35:04,VALID,919.284,VALID,0,VALID,97.0994,VALID,159.228,VALID,19.2363,VALID,146,VALID,0.664063,
2014-05-12, 07:36:04,VALID,919.308,VALID,0,VALID,97.0766,VALID,163.633,VALID,19.3143,VALID,146,VALID,0.291406,
2014-05-12, 07:37:04,VALID,919.35,VALID,0,VALID,97.0766,VALID,168.36,VALID,19.3338,VALID,156,VALID,0.833984,
2014-05-12, 07:38:04,VALID,919.351,VALID,0,VALID,97.0613,VALID,174.055,VALID,19.4118,VALID,163,VALID,0.446484,
2014-05-12, 07:39:04,VALID,919.367,VALID,0,VALID,97.0461,VALID,178.997,VALID,19.4898,VALID,163,VALID,0.171875,
2014-05-12, 07:40:04,VALID,919.38,VALID,0,VALID,97.0308,VALID,185.766,VALID,19.5663,VALID,163,VALID,0.739453,
2014-05-12, 07:41:04,VALID,919.366,VALID,0,VALID,97.0308,VALID,192.857,VALID,19.6263,VALID,163,VALID,0.078125,
2014-05-12, 07:42:04,VALID,919.375,VALID,0,VALID,97.0232,VALID,203.494,VALID,19.7043,VALID,163,VALID,0.356641,
2014-05-12, 07:43:04,VALID,919.363,VALID,0,VALID,97.0156,VALID,212.519,VALID,19.6848,VALID,163,VALID,0.0210938,
2014-05-12, 07:44:04,VALID,919.375,VALID,0,VALID,97.008,VALID,221.544,VALID,19.7823,VALID,161,VALID,0.612109,
2014-05-12, 07:45:04,VALID,919.383,VALID,0,VALID,96.9851,VALID,230.569,VALID,19.8198,VALID,161,VALID,0.577734,
2014-05-12, 07:46:04,VALID,919.416,VALID,0,VALID,97.0003,VALID,235.618,VALID,19.8393,VALID,161,VALID,0.295312,
2014-05-12, 07:47:04,VALID,919.444,VALID,0,VALID,96.9698,VALID,207.361,VALID,19.9368,VALID,162,VALID,0.605469,
2014-05-12, 07:48:04,VALID,919.451,VALID,0,VALID,96.947,VALID,220.792,VALID,20.0148,VALID,162,VALID,0.4625,
2014-05-12, 07:49:04,VALID,919.49,VALID,0,VALID,96.947,VALID,268.818,VALID,20.1334,VALID,162,VALID,0.31875,
2014-05-12, 07:50:04,VALID,919.499,VALID,0,VALID,96.9012,VALID,271.504,VALID,20.2489,VALID,144,VALID,0.605469,
2014-05-12, 07:51:04,VALID,919.524,VALID,0,VALID,96.9165,VALID,266.776,VALID,20.1708,VALID,133,VALID,0.778125,
2014-05-12, 07:52:04,VALID,919.552,VALID,0,VALID,96.9012,VALID,263.875,VALID,20.2098,VALID,129,VALID,0.616016,
2014-05-12, 07:53:04,VALID,919.58,VALID,0,VALID,96.8936,VALID,265.917,VALID,20.2684,VALID,119,VALID,1.11953,
2014-05-12, 07:54:04,VALID,919.631,VALID,0,VALID,96.8555,VALID,268.603,VALID,20.2489,VALID,132,VALID,0.913672,
2014-05-12, 07:55:04,VALID,919.641,VALID,0,VALID,96.8098,VALID,248.511,VALID,20.3464,VALID,114,VALID,0.605859,
2014-05-12, 07:56:04,VALID,919.675,VALID,0,VALID,96.764,VALID,244.644,VALID,20.3854,VALID,114,VALID,0.782422,
2014-05-12, 07:57:04,VALID,919.731,VALID,0,VALID,96.7488,VALID,206.502,VALID,20.4634,VALID,126,VALID,0.628516,
2014-05-12, 07:58:04,VALID,919.724,VALID,0,VALID,96.6878,VALID,241.313,VALID,20.5219,VALID,138,VALID,0.437891,
2014-05-12, 07:59:04,VALID,919.763,VALID,0,VALID,96.6115,VALID,218.965,VALID,20.5625,VALID,131,VALID,0.776953,
2014-05-12, 08:00:04,VALID,919.759,VALID,0,VALID,96.5811,VALID,200.808,VALID,20.6194,VALID,144,VALID,0.577344,
2014-05-12, 08:01:04,VALID,919.773,VALID,0,VALID,96.4819,VALID,229.709,VALID,20.6569,VALID,121,VALID,0.761719,
2014-05-12, 08:02:04,VALID,919.806,VALID,0,VALID,96.3829,VALID,262.801,VALID,20.6975,VALID,118,VALID,0.425,
2014-05-12, 08:03:04,VALID,919.834,VALID,0,VALID,96.1923,VALID,201.13,VALID,20.7154,VALID,95,VALID,0.778906,
2014-05-12, 08:04:04,VALID,919.838,VALID,0,VALID,95.9788,VALID,179.964,VALID,20.756,VALID,105,VALID,0.869141,
2014-05-12, 08:05:04,VALID,919.834,VALID,0,VALID,95.4757,VALID,174.592,VALID,20.6975,VALID,120,VALID,0.845703,
2014-05-12, 08:06:04,VALID,919.864,VALID,0,VALID,95.0869,VALID,185.336,VALID,20.756,VALID,106,VALID,0.603125,
2014-05-12, 08:07:04,VALID,919.868,VALID,0,VALID,94.9268,VALID,188.022,VALID,20.8324,VALID,57,VALID,1.10195,
2014-05-12, 08:08:04,VALID,919.864,VALID,0,VALID,94.599,VALID,214.453,VALID,20.8504,VALID,61,VALID,0.952344,
2014-05-12, 08:09:04,VALID,919.888,VALID,0,VALID,94.6676,VALID,221.329,VALID,20.8894,VALID,43,VALID,1.56367,
2014-05-12, 08:10:04,VALID,919.87,VALID,0,VALID,94.1339,VALID,204.998,VALID,20.8535,VALID,47,VALID,2.04961,
2014-05-12, 08:11:04,VALID,919.873,VALID,0,VALID,94.3474,VALID,195.543,VALID,20.7934,VALID,63,VALID,1.61172,
2014-05-12, 08:12:04,VALID,919.897,VALID,0,VALID,93.8214,VALID,202.097,VALID,20.7154,VALID,66,VALID,1.66445,
2014-05-12, 08:13:04,VALID,919.869,VALID,0,VALID,94.073,VALID,212.841,VALID,20.6975,VALID,50,VALID,1.54766,
2014-05-12, 08:14:04,VALID,919.878,VALID,0,VALID,93.303,VALID,219.18,VALID,20.639,VALID,48,VALID,1.54453,
2014-05-12, 08:15:04,VALID,919.863,VALID,0,VALID,92.716,VALID,210.8,VALID,20.6179,VALID,63,VALID,1.86328,
2014-05-12, 08:16:04,VALID,919.846,VALID,0,VALID,91.9918,VALID,215.849,VALID,20.639,VALID,55,VALID,1.60625,
2014-05-12, 08:17:04,VALID,919.875,VALID,0,VALID,90.3222,VALID,233.255,VALID,20.6179,VALID,67,VALID,1.53906,
2014-05-12, 08:18:04,VALID,919.825,VALID,0,VALID,91.0922,VALID,255.173,VALID,20.795,VALID,57,VALID,1.09141,
2014-05-12, 08:19:04,VALID,919.839,VALID,0,VALID,90.5738,VALID,279.24,VALID,20.9136,VALID,44,VALID,1.46523,
2014-05-12, 08:20:04,VALID,919.851,VALID,0,VALID,89.9639,VALID,271.074,VALID,20.9901,VALID,48,VALID,1.15078,
2014-05-12, 08:21:04,VALID,919.833,VALID,0,VALID,88.9424,VALID,291.488,VALID,21.0681,VALID,38,VALID,1.3707,
2014-05-12, 08:22:04,VALID,919.858,VALID,0,VALID,88.3401,VALID,298.364,VALID,21.1657,VALID,46,VALID,0.965234,
2014-05-12, 08:23:04,VALID,919.879,VALID,0,VALID,86.8688,VALID,314.373,VALID,21.2632,VALID,61,VALID,1.30469,
2014-05-12, 08:24:04,VALID,919.893,VALID,0,VALID,85.4356,VALID,298.794,VALID,21.3412,VALID,55,VALID,1.52734,
2014-05-12, 08:25:04,VALID,919.906,VALID,0,VALID,85.4814,VALID,261.189,VALID,21.3786,VALID,59,VALID,1.17227,
2014-05-12, 08:26:04,VALID,919.933,VALID,0,VALID,85.3213,VALID,244.106,VALID,21.4388,VALID,59,VALID,1.29102,
2014-05-12, 08:27:04,VALID,919.922,VALID,0,VALID,86.4572,VALID,213.163,VALID,21.4583,VALID,70,VALID,0.825781,
2014-05-12, 08:28:04,VALID,919.949,VALID,0,VALID,87.0442,VALID,197.047,VALID,21.4746,VALID,71,VALID,0.966406,
2014-05-12, 08:29:04,VALID,919.945,VALID,0,VALID,86.5563,VALID,189.096,VALID,21.5168,VALID,50,VALID,1.35469,
2014-05-12, 08:30:04,VALID,919.968,VALID,0,VALID,86.8231,VALID,188.022,VALID,21.5559,VALID,45,VALID,1.33633,
2014-05-12, 08:31:04,VALID,919.951,VALID,0,VALID,86.6782,VALID,193.716,VALID,21.5737,VALID,39,VALID,1.2043,
2014-05-12, 08:32:04,VALID,919.984,VALID,0,VALID,86.0912,VALID,208.543,VALID,21.5949,VALID,65,VALID,0.95,
2014-05-12, 08:33:04,VALID,919.962,VALID,0,VALID,85.1993,VALID,228.205,VALID,21.5932,VALID,34,VALID,1.33516,
2014-05-12, 08:34:04,VALID,919.958,VALID,0,VALID,84.78,VALID,259.47,VALID,21.6128,VALID,54,VALID,0.932813,
2014-05-12, 08:35:04,VALID,919.909,VALID,0,VALID,85.0011,VALID,272.901,VALID,21.7103,VALID,39,VALID,0.820313,
2014-05-12, 08:36:04,VALID,919.9,VALID,0,VALID,85.3441,VALID,299.331,VALID,21.8274,VALID,36,VALID,0.613281,
2014-05-12, 08:37:04,VALID,919.879,VALID,0,VALID,84.2692,VALID,317.918,VALID,21.9444,VALID,357,VALID,0.750391,
2014-05-12, 08:38:04,VALID,919.872,VALID,0,VALID,86.3123,VALID,354.019,VALID,22.0615,VALID,347,VALID,0.800391,
2014-05-12, 08:39:04,VALID,919.855,VALID,0,VALID,84.3455,VALID,415.797,VALID,22.1396,VALID,339,VALID,0.95625,
2014-05-12, 08:40:04,VALID,919.885,VALID,0,VALID,82.6073,VALID,447.492,VALID,22.2176,VALID,2,VALID,1.05195,
2014-05-12, 08:41:04,VALID,919.921,VALID,0,VALID,84.5132,VALID,378.193,VALID,22.3542,VALID,333,VALID,0.603516,
2014-05-12, 08:42:04,VALID,919.929,VALID,0,VALID,84.1015,VALID,432.236,VALID,22.3152,VALID,333,VALID,0.391016,
2014-05-12, 08:43:04,VALID,919.967,VALID,0,VALID,84.3226,VALID,439.757,VALID,22.2567,VALID,333,VALID,0.764844,
2014-05-12, 08:44:04,VALID,919.946,VALID,0,VALID,84.2769,VALID,430.732,VALID,22.1201,VALID,283,VALID,0.762109,
2014-05-12, 08:45:04,VALID,919.976,VALID,0,VALID,84.315,VALID,427.186,VALID,21.9818,VALID,283,VALID,0.998438,
2014-05-12, 08:46:04,VALID,920.002,VALID,0,VALID,85.1459,VALID,459.526,VALID,21.9233,VALID,283,VALID,0.439063,
2014-05-12, 08:47:04,VALID,919.981,VALID,0,VALID,85.3746,VALID,471.129,VALID,22.003,VALID,275,VALID,0.928125,
2014-05-12, 08:48:04,VALID,920.003,VALID,0,VALID,84.4217,VALID,477.254,VALID,22.0598,VALID,260,VALID,0.794531,
2014-05-12, 08:49:04,VALID,919.976,VALID,0,VALID,85.2298,VALID,481.229,VALID,22.1396,VALID,273,VALID,0.571484,
2014-05-12, 08:50:04,VALID,919.99,VALID,0,VALID,83.667,VALID,475.212,VALID,22.1769,VALID,256,VALID,0.878516,
2014-05-12, 08:51:04,VALID,919.969,VALID,0,VALID,83.9414,VALID,472.849,VALID,22.2354,VALID,263,VALID,0.496484,
2014-05-12, 08:52:04,VALID,919.962,VALID,0,VALID,83.3392,VALID,470.27,VALID,22.255,VALID,262,VALID,0.969141,
2014-05-12, 08:53:04,VALID,919.989,VALID,0,VALID,82.9504,VALID,476.501,VALID,22.2159,VALID,280,VALID,0.94375,
2014-05-12, 08:54:04,VALID,919.955,VALID,0,VALID,83.8957,VALID,481.874,VALID,22.3152,VALID,280,VALID,0.764063,
2014-05-12, 08:55:04,VALID,919.964,VALID,0,VALID,82.2109,VALID,477.146,VALID,22.3737,VALID,279,VALID,0.694922,
2014-05-12, 08:56:04,VALID,919.941,VALID,0,VALID,82.1576,VALID,487.568,VALID,22.4323,VALID,277,VALID,0.514063,
2014-05-12, 08:57:04,VALID,919.925,VALID,0,VALID,81.6239,VALID,489.717,VALID,22.4891,VALID,276,VALID,0.535547,
2014-05-12, 08:58:04,VALID,919.94,VALID,0,VALID,80.8921,VALID,489.394,VALID,22.5103,VALID,273,VALID,0.701563,
2014-05-12, 08:59:04,VALID,919.891,VALID,0,VALID,81.3266,VALID,489.072,VALID,22.5494,VALID,269,VALID,0.714844,
2014-05-12, 09:00:04,VALID,919.898,VALID,0,VALID,81.2275,VALID,494.659,VALID,22.6452,VALID,273,VALID,0.638281,
2014-05-12, 09:01:04,VALID,919.905,VALID,0,VALID,81.1589,VALID,495.733,VALID,22.7411,VALID,269,VALID,0.612109,
2014-05-12, 09:02:04,VALID,919.876,VALID,0,VALID,80.1602,VALID,492.295,VALID,22.8014,VALID,261,VALID,0.804297,
2014-05-12, 09:03:04,VALID,919.915,VALID,0,VALID,80.7853,VALID,495.089,VALID,22.7623,VALID,261,VALID,0.838281,
2014-05-12, 09:04:04,VALID,919.917,VALID,0,VALID,80.2974,VALID,493.692,VALID,22.7818,VALID,261,VALID,0.541016,
2014-05-12, 09:05:04,VALID,919.918,VALID,0,VALID,79.4207,VALID,495.411,VALID,22.8226,VALID,261,VALID,0.651953,
2014-05-12, 09:06:04,VALID,919.905,VALID,0,VALID,80.5719,VALID,497.13,VALID,22.8209,VALID,261,VALID,0.683594,
2014-05-12, 09:07:04,VALID,919.856,VALID,0,VALID,77.6826,VALID,494.659,VALID,22.9185,VALID,279,VALID,0.767187,
2014-05-12, 09:08:04,VALID,919.864,VALID,0,VALID,78.5288,VALID,494.767,VALID,23.016,VALID,282,VALID,0.691797,
2014-05-12, 09:09:04,VALID,919.875,VALID,0,VALID,76.7525,VALID,500.139,VALID,23.0728,VALID,307,VALID,0.505469,
2014-05-12, 09:10:04,VALID,919.871,VALID,0,VALID,76.0131,VALID,498.742,VALID,23.1899,VALID,293,VALID,0.485547,
2014-05-12, 09:11:04,VALID,919.822,VALID,0,VALID,75.2507,VALID,496.7,VALID,23.3656,VALID,298,VALID,0.557031,
2014-05-12, 09:12:04,VALID,919.858,VALID,0,VALID,75.1593,VALID,502.61,VALID,23.5022,VALID,312,VALID,0.668359,
2014-05-12, 09:13:04,VALID,919.827,VALID,0,VALID,73.9471,VALID,511.85,VALID,23.5803,VALID,304,VALID,0.715234,
2014-05-12, 09:14:04,VALID,919.785,VALID,0,VALID,73.2839,VALID,521.304,VALID,23.6779,VALID,292,VALID,0.975781,
2014-05-12, 09:15:04,VALID,919.779,VALID,0,VALID,73.5888,VALID,520.23,VALID,23.7364,VALID,330,VALID,0.793359,
2014-05-12, 09:16:04,VALID,919.762,VALID,0,VALID,73.627,VALID,521.09,VALID,23.756,VALID,288,VALID,1.21836,
2014-05-12, 09:17:04,VALID,919.75,VALID,0,VALID,74.7171,VALID,525.602,VALID,23.6992,VALID,308,VALID,1.07187,
2014-05-12, 09:18:04,VALID,919.688,VALID,0,VALID,73.5812,VALID,532.049,VALID,23.6974,VALID,256,VALID,0.757422,
2014-05-12, 09:19:04,VALID,919.71,VALID,0,VALID,73.5507,VALID,532.156,VALID,23.7755,VALID,256,VALID,0.446484,
2014-05-12, 09:20:04,VALID,919.684,VALID,0,VALID,74.3283,VALID,520.982,VALID,23.7755,VALID,247,VALID,0.48125,
2014-05-12, 09:21:04,VALID,919.664,VALID,0,VALID,74.8162,VALID,513.461,VALID,23.7755,VALID,253,VALID,0.840234,
2014-05-12, 09:22:04,VALID,919.653,VALID,0,VALID,76.7602,VALID,517.114,VALID,23.7755,VALID,255,VALID,0.653906,
2014-05-12, 09:23:04,VALID,919.654,VALID,0,VALID,74.5799,VALID,520.445,VALID,23.7755,VALID,255,VALID,0.757813,
2014-05-12, 09:24:04,VALID,919.639,VALID,0,VALID,74.5494,VALID,500.998,VALID,23.756,VALID,256,VALID,0.795313,
2014-05-12, 09:25:04,VALID,919.648,VALID,0,VALID,76.5696,VALID,490.576,VALID,23.7151,VALID,256,VALID,0.607031,
2014-05-12, 09:26:04,VALID,919.633,VALID,0,VALID,74.7857,VALID,406.342,VALID,23.7755,VALID,252,VALID,0.617969,
2014-05-12, 09:27:04,VALID,919.647,VALID,0,VALID,73.9471,VALID,438.79,VALID,23.8127,VALID,252,VALID,0.604297,
2014-05-12, 09:28:04,VALID,919.682,VALID,0,VALID,74.557,VALID,492.403,VALID,23.8713,VALID,253,VALID,0.272656,
2014-05-12, 09:29:04,VALID,919.7,VALID,0,VALID,72.1251,VALID,531.297,VALID,24.0274,VALID,254,VALID,0.416406,
2014-05-12, 09:30:04,VALID,919.672,VALID,0,VALID,71.7897,VALID,549.454,VALID,24.1287,VALID,253,VALID,0.535547,
2014-05-12, 09:31:04,VALID,919.684,VALID,0,VALID,72.8494,VALID,560.521,VALID,24.1873,VALID,254,VALID,0.300391,
2014-05-12, 09:32:04,VALID,919.687,VALID,0,VALID,71.9727,VALID,554.289,VALID,24.2654,VALID,285,VALID,0.878906,
2014-05-12, 09:33:04,VALID,919.703,VALID,0,VALID,73.5736,VALID,551.925,VALID,24.2245,VALID,331,VALID,0.8,
2014-05-12, 09:34:04,VALID,919.667,VALID,0,VALID,73.5278,VALID,570.083,VALID,24.283,VALID,325,VALID,0.760547,
2014-05-12, 09:35:04,VALID,919.663,VALID,0,VALID,72.4987,VALID,592.323,VALID,24.4002,VALID,315,VALID,0.360938,
2014-05-12, 09:36:04,VALID,919.656,VALID,0,VALID,72.1175,VALID,594.364,VALID,24.5368,VALID,279,VALID,0.544922,
2014-05-12, 09:37:04,VALID,919.616,VALID,0,VALID,71.7516,VALID,575.025,VALID,24.5564,VALID,303,VALID,0.960156,
2014-05-12, 09:38:04,VALID,919.625,VALID,0,VALID,73.2458,VALID,577.711,VALID,24.5954,VALID,315,VALID,0.623047,
2014-05-12, 09:39:04,VALID,919.607,VALID,0,VALID,71.7897,VALID,574.166,VALID,24.6149,VALID,313,VALID,1.18242,
2014-05-12, 09:40:04,VALID,919.624,VALID,0,VALID,71.7516,VALID,580.612,VALID,24.5564,VALID,284,VALID,0.578125,
2014-05-12, 09:41:04,VALID,919.627,VALID,0,VALID,72.026,VALID,576.744,VALID,24.5387,VALID,267,VALID,0.673828,
2014-05-12, 09:42:04,VALID,919.667,VALID,0,VALID,72.4758,VALID,573.091,VALID,24.4978,VALID,267,VALID,0.555469,
2014-05-12, 09:43:04,VALID,919.656,VALID,0,VALID,70.9893,VALID,574.918,VALID,24.5778,VALID,267,VALID,0.807422,
2014-05-12, 09:44:04,VALID,919.702,VALID,0,VALID,70.8673,VALID,579.538,VALID,24.6716,VALID,267,VALID,0.996094,
2014-05-12, 09:45:04,VALID,919.712,VALID,0,VALID,70.1583,VALID,562.884,VALID,24.6735,VALID,267,VALID,0.898047,
2014-05-12, 09:46:04,VALID,919.731,VALID,0,VALID,70.5395,VALID,573.628,VALID,24.6149,VALID,274,VALID,0.628906,
2014-05-12, 09:47:04,VALID,919.735,VALID,0,VALID,71.9193,VALID,577.819,VALID,24.654,VALID,268,VALID,0.534375,
2014-05-12, 09:48:04,VALID,919.746,VALID,0,VALID,71.5458,VALID,579.967,VALID,24.7711,VALID,277,VALID,0.742578,
2014-05-12, 09:49:04,VALID,919.769,VALID,0,VALID,70.3489,VALID,569.223,VALID,24.8297,VALID,277,VALID,0.630078,
2014-05-12, 09:50:04,VALID,919.785,VALID,0,VALID,71.4695,VALID,553.859,VALID,24.8492,VALID,275,VALID,0.565625,
2014-05-12, 09:51:04,VALID,919.783,VALID,0,VALID,71.1493,VALID,560.628,VALID,24.8883,VALID,275,VALID,0.280469,
2014-05-12, 09:52:04,VALID,919.797,VALID,0,VALID,71.2332,VALID,563.314,VALID,25.0445,VALID,265,VALID,1.02383,
2014-05-12, 09:53:04,VALID,919.807,VALID,0,VALID,71.7135,VALID,584.695,VALID,25.1031,VALID,264,VALID,0.880859,
2014-05-12, 09:54:04,VALID,919.846,VALID,0,VALID,71.6601,VALID,600.166,VALID,25.1207,VALID,278,VALID,0.778906,
2014-05-12, 09:55:04,VALID,919.865,VALID,0,VALID,70.448,VALID,619.291,VALID,25.1812,VALID,309,VALID,0.561328,
2014-05-12, 09:56:04,VALID,919.878,VALID,0,VALID,70.4327,VALID,640.349,VALID,25.2203,VALID,266,VALID,0.826953,
2014-05-12, 09:57:04,VALID,919.876,VALID,0,VALID,69.4341,VALID,643.787,VALID,25.316,VALID,266,VALID,0.461719,
2014-05-12, 09:58:04,VALID,919.91,VALID,0,VALID,69.678,VALID,656.68,VALID,25.316,VALID,266,VALID,0.535156,
2014-05-12, 09:59:04,VALID,919.89,VALID,0,VALID,69.9448,VALID,617.572,VALID,25.2965,VALID,276,VALID,1.00977,
2014-05-12, 10:00:04,VALID,919.877,VALID,0,VALID,69.6323,VALID,515.395,VALID,25.1598,VALID,267,VALID,0.813672,
2014-05-12, 10:01:04,VALID,919.882,VALID,0,VALID,70.7987,VALID,422.781,VALID,25.0836,VALID,267,VALID,0.592578,
2014-05-12, 10:02:04,VALID,919.887,VALID,0,VALID,71.0731,VALID,649.804,VALID,25.0055,VALID,267,VALID,0.734375,
2014-05-12, 10:03:04,VALID,919.88,VALID,0,VALID,71.1036,VALID,644.862,VALID,24.9645,VALID,267,VALID,0.596484,
2014-05-12, 10:04:04,VALID,919.87,VALID,0,VALID,70.509,VALID,641.316,VALID,25.025,VALID,267,VALID,0.942187,
2014-05-12, 10:05:04,VALID,919.866,VALID,0,VALID,72.4148,VALID,656.788,VALID,25.0836,VALID,267,VALID,0.336328,
2014-05-12, 10:06:04,VALID,919.852,VALID,0,VALID,70.326,VALID,671.507,VALID,25.2965,VALID,283,VALID,0.907812,
2014-05-12, 10:07:04,VALID,919.854,VALID,0,VALID,70.2955,VALID,679.35,VALID,25.3941,VALID,277,VALID,0.944922,
2014-05-12, 10:08:04,VALID,919.849,VALID,0,VALID,69.9906,VALID,676.557,VALID,25.316,VALID,269,VALID,0.790625,
2014-05-12, 10:09:04,VALID,919.835,VALID,0,VALID,70.2498,VALID,686.764,VALID,25.2183,VALID,274,VALID,0.844922,
2014-05-12, 10:10:04,VALID,919.775,VALID,0,VALID,71.0731,VALID,666.457,VALID,25.2203,VALID,276,VALID,1.01406,
2014-05-12, 10:11:04,VALID,919.769,VALID,0,VALID,70.7453,VALID,655.821,VALID,25.2203,VALID,281,VALID,0.482031,
2014-05-12, 10:12:04,VALID,919.77,VALID,0,VALID,71.0655,VALID,648.3,VALID,25.2965,VALID,309,VALID,0.170312,
2014-05-12, 10:13:04,VALID,919.735,VALID,0,VALID,71.4695,VALID,698.797,VALID,25.5698,VALID,309,VALID,0.525,
2014-05-12, 10:14:04,VALID,919.742,VALID,0,VALID,68.687,VALID,711.798,VALID,25.6675,VALID,266,VALID,1.00391,
2014-05-12, 10:15:04,VALID,919.706,VALID,0,VALID,68.4811,VALID,704.062,VALID,25.7495,VALID,266,VALID,0.48125,
2014-05-12, 10:16:04,VALID,919.711,VALID,0,VALID,68.687,VALID,613.919,VALID,25.9038,VALID,267,VALID,0.346875,
2014-05-12, 10:17:04,VALID,919.705,VALID,0,VALID,66.7964,VALID,548.702,VALID,26.0015,VALID,265,VALID,0.809766,
2014-05-12, 10:18:04,VALID,919.707,VALID,0,VALID,67.1852,VALID,547.735,VALID,25.8433,VALID,265,VALID,0.621094,
2014-05-12, 10:19:04,VALID,919.694,VALID,0,VALID,68.1838,VALID,537.206,VALID,25.6675,VALID,265,VALID,0.90625,
2014-05-12, 10:20:04,VALID,919.722,VALID,0,VALID,71.4771,VALID,628.746,VALID,25.6499,VALID,265,VALID,0.587109,
2014-05-12, 10:21:04,VALID,919.705,VALID,0,VALID,69.3502,VALID,655.176,VALID,25.7866,VALID,350,VALID,1.3793,
2014-05-12, 10:22:04,VALID,919.702,VALID,0,VALID,69.1291,VALID,720.285,VALID,25.9409,VALID,349,VALID,0.335156,
2014-05-12, 10:23:04,VALID,919.72,VALID,0,VALID,70.5852,VALID,712.335,VALID,26.2359,VALID,349,VALID,0.530078,
2014-05-12, 10:24:04,VALID,919.691,VALID,0,VALID,68.2829,VALID,538.388,VALID,26.314,VALID,316,VALID,0.993359,
2014-05-12, 10:25:04,VALID,919.723,VALID,0,VALID,70.1812,VALID,654.317,VALID,26.1948,VALID,315,VALID,1.05078,
2014-05-12, 10:26:04,VALID,919.693,VALID,0,VALID,70.1431,VALID,599.199,VALID,26.1362,VALID,353,VALID,1.15117,
2014-05-12, 10:27:04,VALID,919.672,VALID,0,VALID,67.0556,VALID,565.463,VALID,26.2339,VALID,319,VALID,0.958984,
2014-05-12, 10:28:04,VALID,919.663,VALID,0,VALID,68.4888,VALID,574.918,VALID,26.0581,VALID,299,VALID,0.208984,
2014-05-12, 10:29:04,VALID,919.668,VALID,0,VALID,70.387,VALID,566.322,VALID,26.0015,VALID,300,VALID,0.894922,
2014-05-12, 10:30:04,VALID,919.63,VALID,0,VALID,71.0045,VALID,564.496,VALID,25.982,VALID,309,VALID,0.398828,
2014-05-12, 10:31:04,VALID,919.596,VALID,0,VALID,69.0377,VALID,570.298,VALID,25.9624,VALID,300,VALID,0.617578,
2014-05-12, 10:32:04,VALID,919.603,VALID,0,VALID,69.7314,VALID,581.364,VALID,25.9038,VALID,309,VALID,1.23047,
2014-05-12, 10:33:04,VALID,919.58,VALID,0,VALID,70.6691,VALID,581.901,VALID,25.8843,VALID,331,VALID,0.284375,